| time (UTC) | temp C | wind direction | speed KPH | gust KPH | rain 1hr cm | rain 24hr cm | rain mn cm | humidity % | barometer mb |
| 20260503021523 | 7 | 0.0 | 0.0 | 0.00 | 0.00 | 0.00 | 84 | 1018.4 | |
| 20260503020519 | 7 | 0.0 | 0.0 | 0.00 | 0.00 | 0.00 | 83 | 1018.5 | |
| 20260503015521 | 7 | 0.0 | 0.0 | 0.00 | 0.00 | 0.00 | 83 | 1018.6 | |
| 20260503014517 | 8 | 0.0 | 0.0 | 0.00 | 0.00 | 0.00 | 84 | 1018.6 | |
| 20260503013528 | 7 | 90 | 0.0 | 1.6 | 0.00 | 0.00 | 0.00 | 83 | 1018.7 |
| 20260503012524 | 7 | 0.0 | 0.0 | 0.00 | 0.00 | 0.00 | 82 | 1018.7 | |
| 20260503011520 | 7 | 0.0 | 0.0 | 0.00 | 0.00 | 0.00 | 82 | 1018.7 | |
| 20260503010515 | 8 | 0.0 | 0.0 | 0.00 | 0.00 | 0.00 | 82 | 1018.8 | |
| 20260503005526 | 8 | 0.0 | 0.0 | 0.00 | 0.00 | 0.00 | 83 | 1018.7 | |
| 20260503004522 | 8 | 0.0 | 0.0 | 0.00 | 0.00 | 0.00 | 83 | 1018.9 | |
| 20260503003518 | 8 | 0.0 | 0.0 | 0.00 | 0.00 | 0.00 | 82 | 1018.9 | |
| 20260503002529 | 8 | 0.0 | 0.0 | 0.00 | 0.00 | 0.00 | 83 | 1019.0 | |
| 20260503001525 | 8 | 0.0 | 0.0 | 0.00 | 0.00 | 0.00 | 83 | 1019.0 | |
| 20260503000521 | 8 | 0.0 | 0.0 | 0.00 | 0.00 | 0.00 | 83 | 1019.1 | |
| 20260502235516 | 8 | 0.0 | 0.0 | 0.00 | 0.00 | 0.00 | 83 | 1019.1 | |
| 20260502234527 | 8 | 0.0 | 0.0 | 0.00 | 0.00 | 0.00 | 82 | 1019.2 | |
| 20260502233523 | 8 | 0.0 | 0.0 | 0.00 | 0.00 | 0.00 | 82 | 1019.2 | |
| 20260502232525 | 8 | 0.0 | 0.0 | 0.00 | 0.00 | 0.00 | 82 | 1019.3 | |
| 20260502231521 | 8 | 0.0 | 0.0 | 0.00 | 0.00 | 0.00 | 81 | 1019.3 | |
| 20260502230517 | 8 | 0.0 | 0.0 | 0.00 | 0.00 | 0.00 | 80 | 1019.4 | |
| 20260502225528 | 9 | 0.0 | 0.0 | 0.00 | 0.00 | 0.00 | 80 | 1019.6 | |
| 20260502224524 | 9 | 0.0 | 0.0 | 0.00 | 0.00 | 0.00 | 80 | 1019.6 | |
| 20260502223520 | 9 | 0.0 | 0.0 | 0.00 | 0.00 | 0.00 | 78 | 1019.6 | |
| 20260502222516 | 9 | 0.0 | 0.0 | 0.00 | 0.00 | 0.00 | 77 | 1019.7 | |
| 20260502221526 | 10 | 0.0 | 0.0 | 0.00 | 0.00 | 0.00 | 76 | 1019.7 | |
| 20260502220521 | 10 | 0.0 | 0.0 | 0.00 | 0.00 | 0.00 | 76 | 1019.6 | |
| 20260502215517 | 10 | 0.0 | 0.0 | 0.00 | 0.00 | 0.00 | 75 | 1019.6 | |
| 20260502214527 | 10 | 0.0 | 0.0 | 0.00 | 0.00 | 0.00 | 74 | 1019.5 | |
| 20260502213523 | 10 | 0.0 | 0.0 | 0.00 | 0.00 | 0.00 | 74 | 1019.5 | |
| 20260502212519 | 10 | 0.0 | 0.0 | 0.00 | 0.00 | 0.00 | 75 | 1019.5 | |
| 20260502211530 | 11 | 0.0 | 0.0 | 0.00 | 0.00 | 0.00 | 73 | 1019.5 | |
| 20260502210526 | 11 | 0.0 | 0.0 | 0.00 | 0.00 | 0.00 | 72 | 1019.5 | |
| 20260502205521 | 11 | 0.0 | 0.0 | 0.00 | 0.00 | 0.00 | 72 | 1019.6 | |
| 20260502204517 | 11 | 0.0 | 0.0 | 0.00 | 0.00 | 0.00 | 71 | 1019.7 | |
| 20260502203528 | 11 | 0.0 | 0.0 | 0.00 | 0.00 | 0.00 | 71 | 1019.8 | |
| 20260502202524 | 12 | 0.0 | 0.0 | 0.00 | 0.00 | 0.00 | 70 | 1019.7 | |
| 20260502201519 | 12 | 0.0 | 0.0 | 0.00 | 0.00 | 0.00 | 65 | 1019.8 | |
| 20260502200515 | 12 | 0.0 | 0.0 | 0.00 | 0.00 | 0.00 | 63 | 1019.8 | |
| 20260502195526 | 12 | 0.0 | 0.0 | 0.00 | 0.00 | 0.00 | 63 | 1019.7 | |
| 20260502194522 | 13 | 0.0 | 0.0 | 0.00 | 0.00 | 0.00 | 62 | 1019.7 | |
| 20260502193518 | 13 | 0.0 | 0.0 | 0.00 | 0.00 | 0.00 | 61 | 1019.7 | |
| 20260502192529 | 13 | 0.0 | 0.0 | 0.00 | 0.00 | 0.00 | 60 | 1019.6 | |
| 20260502191525 | 14 | 0.0 | 0.0 | 0.00 | 0.00 | 0.00 | 58 | 1019.5 | |
| 20260502190521 | 15 | 0.0 | 0.0 | 0.00 | 0.00 | 0.00 | 57 | 1019.4 | |
| 20260502185517 | 15 | 0.0 | 0.0 | 0.00 | 0.00 | 0.00 | 56 | 1019.4 | |
| 20260502184528 | 16 | 0.0 | 0.0 | 0.00 | 0.00 | 0.00 | 53 | 1019.3 | |
| 20260502183523 | 16 | 0.0 | 0.0 | 0.00 | 0.00 | 0.00 | 50 | 1019.3 | |
| 20260502182519 | 17 | 0.0 | 0.0 | 0.00 | 0.00 | 0.00 | 44 | 1019.2 | |
| 20260502181515 | 18 | 0.0 | 0.0 | 0.00 | 0.00 | 0.00 | 41 | 1019.0 | |
| 20260502180526 | 19 | 0.0 | 0.0 | 0.00 | 0.00 | 0.00 | 41 | 1019.0 | |
| 20260502170516 | 25 | 216 | 0.0 | 3.2 | 0.00 | 0.00 | 0.00 | 25 | 1019.0 |
| 20260502162520 | 26 | 191 | 0.0 | 4.8 | 0.00 | 0.00 | 0.00 | 24 | 1019.4 |
| 20260502161516 | 26 | 217 | 3.2 | 8.0 | 0.00 | 0.00 | 0.00 | 25 | 1019.4 |
| 20260502160527 | 26 | 189 | 4.8 | 9.7 | 0.00 | 0.00 | 0.00 | 23 | 1019.5 |
| 20260502151521 | 27 | 195 | 3.2 | 8.0 | 0.00 | 0.00 | 0.00 | 22 | 1020.0 |
| 20260502150517 | 26 | 130 | 1.6 | 6.4 | 0.00 | 0.00 | 0.00 | 23 | 1020.2 |
| 20260502123519 | 25 | 320 | 3.2 | 9.7 | 0.00 | 0.00 | 0.00 | 24 | 1021.6 |
| 20260502122515 | 25 | 246 | 0.0 | 4.8 | 0.00 | 0.00 | 0.00 | 25 | 1021.7 |
| 20260502121526 | 25 | 179 | 4.8 | 9.7 | 0.00 | 0.00 | 0.00 | 25 | 1021.8 |
| 20260502120522 | 25 | 284 | 1.6 | 4.8 | 0.00 | 0.00 | 0.00 | 25 | 1022.0 |
| 20260502115518 | 25 | 21 | 1.6 | 6.4 | 0.00 | 0.00 | 0.00 | 25 | 1022.1 |
| 20260502114528 | 24 | 229 | 1.6 | 6.4 | 0.00 | 0.00 | 0.00 | 27 | 1022.2 |
| 20260502113524 | 23 | 150 | 3.2 | 8.0 | 0.00 | 0.00 | 0.00 | 27 | 1022.3 |
| 20260502112520 | 23 | 8 | 1.6 | 4.8 | 0.00 | 0.00 | 0.00 | 30 | 1022.4 |
| 20260502111530 | 22 | 16 | 3.2 | 11.3 | 0.00 | 0.00 | 0.00 | 27 | 1022.5 |
| 20260502110516 | 22 | 339 | 1.6 | 4.8 | 0.00 | 0.00 | 0.00 | 27 | 1022.6 |
| 20260502105527 | 23 | 340 | 4.8 | 8.0 | 0.00 | 0.00 | 0.00 | 26 | 1022.8 |
| 20260502104523 | 23 | 315 | 0.0 | 4.8 | 0.00 | 0.00 | 0.00 | 25 | 1022.9 |
| 20260502103519 | 23 | 158 | 1.6 | 4.8 | 0.00 | 0.00 | 0.00 | 25 | 1022.9 |
| 20260502102529 | 23 | 154 | 6.4 | 9.7 | 0.00 | 0.00 | 0.00 | 26 | 1023.1 |
| 20260502101525 | 23 | 177 | 3.2 | 8.0 | 0.00 | 0.00 | 0.00 | 25 | 1023.2 |
| 20260502100521 | 22 | 164 | 4.8 | 11.3 | 0.00 | 0.00 | 0.00 | 26 | 1023.3 |
| 20260502091530 | 22 | 270 | 0.0 | 1.6 | 0.00 | 0.00 | 0.00 | 29 | 1023.9 |
| 20260502090526 | 22 | 180 | 0.0 | 1.6 | 0.00 | 0.00 | 0.00 | 30 | 1023.9 |
| 20260502071530 | 17 | 90 | 1.6 | 4.8 | 0.00 | 0.00 | 0.00 | 44 | 1024.5 |
| 20260502070525 | 17 | 45 | 3.2 | 4.8 | 0.00 | 0.00 | 0.00 | 49 | 1024.4 |
| 20260502065521 | 16 | 0.0 | 0.0 | 0.00 | 0.00 | 0.00 | 52 | 1024.5 | |
| 20260502064517 | 16 | 90 | 0.0 | 1.6 | 0.00 | 0.00 | 0.00 | 52 | 1024.4 |
| 20260502063528 | 15 | 0.0 | 0.0 | 0.00 | 0.00 | 0.00 | 54 | 1024.5 | |
| 20260502062523 | 14 | 0.0 | 0.0 | 0.00 | 0.00 | 0.00 | 58 | 1024.6 | |
| 20260502061518 | 13 | 0.0 | 1.6 | 0.00 | 0.00 | 0.00 | 60 | 1024.7 | |
| 20260502060528 | 12 | 103 | 0.0 | 3.2 | 0.00 | 0.00 | 0.00 | 60 | 1024.7 |
| 20260502055524 | 12 | 25 | 0.0 | 3.2 | 0.00 | 0.00 | 0.00 | 61 | 1024.8 |
| 20260502054520 | 11 | 0.0 | 0.0 | 0.00 | 0.00 | 0.00 | 67 | 1024.8 | |
| 20260502053516 | 11 | 90 | 0.0 | 1.6 | 0.00 | 0.00 | 0.00 | 68 | 1024.8 |
| 20260502052527 | 11 | 0.0 | 0.0 | 0.00 | 0.00 | 0.00 | 69 | 1024.8 | |
| 20260502051523 | 10 | 0.0 | 0.0 | 0.00 | 0.00 | 0.00 | 72 | 1024.8 | |
| 20260502050525 | 10 | 0.0 | 0.0 | 0.00 | 0.00 | 0.00 | 75 | 1024.8 | |
| 20260502045521 | 8 | 0.0 | 0.0 | 0.00 | 0.00 | 0.00 | 82 | 1024.8 | |
| 20260502044517 | 7 | 0.0 | 0.0 | 0.00 | 0.00 | 0.00 | 87 | 1024.7 | |
| 20260502043527 | 6 | 0.0 | 0.0 | 0.00 | 0.00 | 0.00 | 88 | 1024.6 | |
| 20260502042528 | 5 | 0.0 | 0.0 | 0.00 | 0.00 | 0.00 | 88 | 1024.6 | |
| 20260502041524 | 5 | 0.0 | 0.0 | 0.00 | 0.00 | 0.00 | 88 | 1024.4 | |
| 20260502040520 | 5 | 0.0 | 0.0 | 0.00 | 0.00 | 0.00 | 88 | 1024.4 | |
| 20260502035516 | 5 | 0.0 | 0.0 | 0.00 | 0.00 | 0.00 | 88 | 1024.4 | |
| 20260502034526 | 5 | 0.0 | 0.0 | 0.00 | 0.00 | 0.00 | 87 | 1024.3 | |
| 20260502033522 | 5 | 0.0 | 0.0 | 0.00 | 0.00 | 0.00 | 86 | 1024.4 | |
| 20260502032518 | 5 | 0.0 | 0.0 | 0.00 | 0.00 | 0.00 | 86 | 1024.3 | |
| 20260502031529 | 6 | 0.0 | 0.0 | 0.00 | 0.00 | 0.00 | 86 | 1024.3 | |
| 20260502030525 | 6 | 0.0 | 0.0 | 0.00 | 0.00 | 0.00 | 86 | 1024.5 | |
| 20260502025521 | 6 | 0.0 | 0.0 | 0.00 | 0.00 | 0.00 | 85 | 1024.4 | |
| 20260502024516 | 6 | 0.0 | 0.0 | 0.00 | 0.00 | 0.00 | 84 | 1024.4 | |
| 20260502023527 | 6 | 0.0 | 0.0 | 0.00 | 0.00 | 0.00 | 83 | 1024.5 | |
| 20260502022523 | 6 | 0.0 | 0.0 | 0.00 | 0.00 | 0.00 | 83 | 1024.5 |